Tracking 19489 objects as of 22-Jan-2019
HD Live streaming from Space Station
objects crossing your sky now

COSMOS 2295 (GLONASS)

Track COSMOS 2295 (GLONASS) now!
COSMOS 2295 (GLONASS) is classified as:


NORAD ID: 23396
Int'l Code: 1994-076A
Perigee: 19,034.2 km
Apogee: 19,239.7 km
Inclination: 64.0 °
Period: 675.7 minutes
Semi major axis: 25507 km
RCS: 2.9701 m2 (large)
Launch date: November 20, 1994
Source: Commonwealth of Independent States (former USSR) (CIS)
Launch site: TYURATAM MISSILE AND SPACE COMPLEX (TTMTR)
SV:
aabbcc
Your satellite tracking list
Your tracking list is empty




NASA's NSSDC Master Catalog

Two Line Element Set (TLE):
1 23396U 94076A   19021.66346711  .00000035  00000-0  00000+0 0  9993
2 23396  63.9939 162.4796 0040281 193.8567 243.3305  2.13102910188122
Source of the keplerian elements: AFSPC